TimeCDT,TemperatureF,Dew PointF,Humidity,Sea Level PressureIn,VisibilityMPH,Wind Direction,Wind SpeedMPH,Gust SpeedMPH,PrecipitationIn,Events,Conditions,WindDirDegrees,DateUTC
12:52 AM,63.0,55.9,78,29.66,10.0,Calm,Calm,-,N/A,,Clear,0,2013-05-22 05:52:00
1:52 AM,59.0,55.9,90,29.65,10.0,East,3.5,-,N/A,,Mostly Cloudy,80,2013-05-22 06:52:00
2:52 AM,57.9,55.0,90,29.64,10.0,Calm,Calm,-,N/A,,Clear,0,2013-05-22 07:52:00
3:52 AM,57.9,55.9,93,29.63,10.0,Calm,Calm,-,N/A,,Clear,0,2013-05-22 08:52:00
4:52 AM,60.1,57.0,90,29.63,10.0,WSW,4.6,-,N/A,,Clear,250,2013-05-22 09:52:00
5:52 AM,60.1,57.0,90,29.64,10.0,WSW,3.5,-,N/A,,Mostly Cloudy,240,2013-05-22 10:52:00
6:52 AM,60.1,55.9,86,29.63,8.0,Calm,Calm,-,0.00,Rain,Light Rain,0,2013-05-22 11:52:00
7:52 AM,63.0,55.0,75,29.64,10.0,West,5.8,-,0.01,,Mostly Cloudy,270,2013-05-22 12:52:00
8:52 AM,63.0,55.0,75,29.66,10.0,West,5.8,-,N/A,,Overcast,260,2013-05-22 13:52:00
9:52 AM,63.0,53.1,70,29.67,10.0,WSW,8.1,-,N/A,,Overcast,250,2013-05-22 14:52:00
10:52 AM,66.9,53.1,61,29.68,10.0,WSW,8.1,-,N/A,,Overcast,250,2013-05-22 15:52:00
11:52 AM,68.0,51.1,55,29.68,10.0,SW,13.8,19.6,N/A,,Overcast,220,2013-05-22 16:52:00
12:52 PM,66.9,52.0,59,29.68,10.0,WSW,12.7,-,N/A,,Overcast,240,2013-05-22 17:52:00
1:52 PM,66.9,52.0,59,29.68,10.0,WSW,13.8,-,N/A,,Overcast,250,2013-05-22 18:52:00
2:52 PM,66.9,53.1,61,29.69,10.0,WSW,15.0,-,N/A,,Overcast,250,2013-05-22 19:52:00
3:52 PM,66.0,53.1,63,29.70,10.0,WSW,10.4,-,N/A,,Overcast,240,2013-05-22 20:52:00
4:52 PM,63.0,53.1,70,29.72,10.0,West,16.1,-,N/A,,Overcast,260,2013-05-22 21:52:00
5:52 PM,64.0,54.0,70,29.73,10.0,WSW,9.2,-,N/A,,Overcast,250,2013-05-22 22:52:00
6:52 PM,63.0,54.0,72,29.72,10.0,WSW,11.5,-,N/A,,Overcast,240,2013-05-22 23:52:00
7:52 PM,62.1,53.1,72,29.73,10.0,WSW,13.8,-,N/A,,Overcast,250,2013-05-23 00:52:00
8:52 PM,60.1,55.0,83,29.75,10.0,WSW,11.5,-,N/A,,Overcast,250,2013-05-23 01:52:00
9:52 PM,60.1,55.0,83,29.77,10.0,WSW,12.7,-,N/A,,Overcast,250,2013-05-23 02:52:00
10:07 PM,60.8,55.4,82,29.77,10.0,West,10.4,-,N/A,,Overcast,260,2013-05-23 03:07:00
10:52 PM,60.1,55.0,83,29.78,10.0,West,9.2,-,N/A,,Overcast,260,2013-05-23 03:52:00
11:24 PM,59.0,53.6,82,29.78,10.0,West,15.0,21.9,N/A,,Mostly Cloudy,270,2013-05-23 04:24:00
11:36 PM,59.0,53.6,82,29.79,10.0,West,11.5,20.7,N/A,,Mostly Cloudy,280,2013-05-23 04:36:00
11:52 PM,59.0,53.1,81,29.78,10.0,West,12.7,-,N/A,,Overcast,260,2013-05-23 04:52:00